| time (UTC) | temp C | wind direction | speed KPH | gust KPH | rain 1hr cm | rain 24hr cm | rain mn cm | humidity % | barometer mb |
| 20260903151555 | 29 | 254 | 8.0 | 17.7 | 0.00 | 0.00 | 0.00 | 73 | 1010.9 |
| 20260903151045 | 29 | 257 | 8.0 | 17.7 | 0.00 | 0.00 | 0.00 | 73 | 1010.9 |
| 20260903150543 | 29 | 230 | 8.0 | 16.1 | 0.00 | 0.00 | 0.00 | 74 | 1010.9 |
| 20260903150036 | 29 | 238 | 6.4 | 16.1 | 0.00 | 0.00 | 0.00 | 75 | 1010.9 |
| 20260903145530 | 28 | 173 | 4.8 | 11.3 | 0.00 | 0.00 | 0.00 | 75 | 1010.9 |
| 20260903145249 | 28 | 232 | 6.4 | 12.9 | 0.00 | 0.00 | 0.00 | 75 | 1010.9 |
| 20260903144516 | 28 | 248 | 6.4 | 12.9 | 0.00 | 0.00 | 0.00 | 76 | 1010.9 |
| 20260903144006 | 28 | 231 | 6.4 | 14.5 | 0.00 | 0.00 | 0.00 | 75 | 1010.9 |
| 20260903143454 | 28 | 290 | 6.4 | 14.5 | 0.00 | 0.00 | 0.00 | 75 | 1010.9 |
| 20260903142942 | 28 | 258 | 8.0 | 12.9 | 0.00 | 0.00 | 0.00 | 76 | 1010.8 |
| 20260903142508 | 28 | 198 | 8.0 | 14.5 | 0.00 | 0.00 | 0.00 | 76 | 1010.8 |
| 20260903141847 | 27 | 227 | 8.0 | 14.5 | 0.00 | 0.00 | 0.00 | 77 | 1010.8 |
| 20260903141117 | 27 | 212 | 8.0 | 14.5 | 0.00 | 0.00 | 0.00 | 78 | 1010.8 |
| 20260903140341 | 27 | 221 | 6.4 | 14.5 | 0.00 | 0.00 | 0.00 | 78 | 1010.8 |
| 20260903135828 | 27 | 232 | 6.4 | 12.9 | 0.00 | 0.00 | 0.00 | 80 | 1010.8 |
| 20260903135316 | 27 | 240 | 6.4 | 12.9 | 0.00 | 0.00 | 0.00 | 80 | 1010.8 |
| 20260903134811 | 26 | 195 | 4.8 | 12.9 | 0.00 | 0.00 | 0.00 | 81 | 1010.8 |
| 20260903134306 | 26 | 207 | 6.4 | 16.1 | 0.00 | 0.00 | 0.00 | 81 | 1010.8 |
| 20260903133755 | 26 | 225 | 8.0 | 16.1 | 0.00 | 0.00 | 0.00 | 82 | 1010.8 |
| 20260903133252 | 26 | 246 | 6.4 | 16.1 | 0.00 | 0.00 | 0.00 | 82 | 1010.8 |
| 20260903132746 | 26 | 196 | 6.4 | 16.1 | 0.00 | 0.00 | 0.00 | 83 | 1010.9 |
| 20260903132459 | 25 | 181 | 6.4 | 14.5 | 0.00 | 0.00 | 0.00 | 83 | 1010.9 |
| 20260903131956 | 25 | 244 | 4.8 | 14.5 | 0.00 | 0.00 | 0.00 | 84 | 1010.9 |
| 20260903131452 | 25 | 229 | 4.8 | 14.5 | 0.00 | 0.00 | 0.00 | 84 | 1011.0 |
| 20260903130948 | 25 | 169 | 4.8 | 11.3 | 0.00 | 0.00 | 0.00 | 84 | 1011.0 |
| 20260903130211 | 25 | 225 | 4.8 | 11.3 | 0.00 | 0.00 | 0.00 | 85 | 1011.0 |
| 20260903125710 | 25 | 213 | 4.8 | 11.3 | 0.00 | 0.00 | 0.00 | 85 | 1011.1 |
| 20260903125206 | 25 | 214 | 4.8 | 8.0 | 0.00 | 0.00 | 0.00 | 85 | 1011.1 |
| 20260903124658 | 24 | 177 | 4.8 | 8.0 | 0.00 | 0.00 | 0.00 | 86 | 1011.1 |
| 20260903124151 | 24 | 196 | 3.2 | 8.0 | 0.00 | 0.00 | 0.00 | 86 | 1011.1 |
| 20260903123641 | 24 | 215 | 3.2 | 8.0 | 0.00 | 0.00 | 0.00 | 86 | 1011.1 |
| 20260903123140 | 24 | 207 | 1.6 | 6.4 | 0.00 | 0.00 | 0.00 | 87 | 1011.1 |
| 20260903122635 | 23 | 148 | 1.6 | 6.4 | 0.00 | 0.00 | 0.00 | 87 | 1011.1 |
| 20260903122128 | 23 | 200 | 1.6 | 6.4 | 0.00 | 0.00 | 0.00 | 87 | 1011.1 |
| 20260903121623 | 23 | 219 | 1.6 | 8.0 | 0.00 | 0.00 | 0.00 | 87 | 1011.1 |
| 20260903121113 | 23 | 217 | 1.6 | 8.0 | 0.00 | 0.00 | 0.00 | 87 | 1011.0 |
| 20260903120833 | 23 | 178 | 1.6 | 4.8 | 0.00 | 0.00 | 0.00 | 87 | 1011.0 |
| 20260903120104 | 23 | 191 | 1.6 | 4.8 | 0.00 | 0.00 | 0.00 | 87 | 1011.0 |
| 20260903115640 | 23 | 211 | 1.6 | 4.8 | 0.00 | 0.00 | 0.00 | 87 | 1011.0 |
| 20260903114805 | 23 | 178 | 1.6 | 6.4 | 0.00 | 0.00 | 0.00 | 87 | 1011.0 |
| 20260903114040 | 23 | 191 | 1.6 | 6.4 | 0.00 | 0.00 | 0.00 | 87 | 1010.9 |
| 20260903113535 | 23 | 207 | 1.6 | 6.4 | 0.00 | 0.00 | 0.00 | 87 | 1010.9 |
| 20260903113029 | 23 | 224 | 1.6 | 6.4 | 0.00 | 0.00 | 0.00 | 87 | 1010.9 |
| 20260903112523 | 23 | 180 | 1.6 | 6.4 | 0.00 | 0.00 | 0.00 | 87 | 1010.9 |
| 20260903112015 | 23 | 237 | 0.0 | 6.4 | 0.00 | 0.00 | 0.00 | 87 | 1010.9 |
| 20260903111511 | 23 | 213 | 1.6 | 4.8 | 0.00 | 0.00 | 0.00 | 87 | 1010.9 |
| 20260903111000 | 23 | 219 | 1.6 | 4.8 | 0.00 | 0.00 | 0.00 | 87 | 1010.9 |
| 20260903110458 | 23 | 236 | 1.6 | 6.4 | 0.00 | 0.00 | 0.00 | 87 | 1010.9 |
| 20260903105952 | 23 | 229 | 1.6 | 6.4 | 0.00 | 0.00 | 0.00 | 86 | 1010.8 |
| 20260903105445 | 23 | 221 | 3.2 | 6.4 | 0.00 | 0.00 | 0.00 | 86 | 1010.8 |
| 20260903104940 | 23 | 223 | 3.2 | 8.0 | 0.00 | 0.00 | 0.00 | 86 | 1010.8 |
| 20260903104432 | 23 | 223 | 1.6 | 8.0 | 0.00 | 0.00 | 0.00 | 86 | 1010.8 |
| 20260903104141 | 23 | 234 | 3.2 | 8.0 | 0.00 | 0.00 | 0.00 | 86 | 1010.8 |
| 20260903103407 | 23 | 244 | 3.2 | 9.7 | 0.00 | 0.00 | 0.00 | 86 | 1010.8 |
| 20260903103118 | 23 | 225 | 3.2 | 9.7 | 0.00 | 0.00 | 0.00 | 86 | 1010.8 |
| 20260903102358 | 23 | 194 | 3.2 | 6.4 | 0.00 | 0.00 | 0.00 | 86 | 1010.8 |
| 20260903101859 | 23 | 161 | 3.2 | 9.7 | 0.00 | 0.00 | 0.00 | 86 | 1010.8 |
| 20260903101359 | 23 | 190 | 3.2 | 9.7 | 0.00 | 0.00 | 0.00 | 86 | 1010.8 |
| 20260903100859 | 23 | 226 | 1.6 | 6.4 | 0.00 | 0.00 | 0.00 | 86 | 1010.8 |
| 20260903100358 | 24 | 196 | 1.6 | 4.8 | 0.00 | 0.00 | 0.00 | 86 | 1010.8 |
| 20260903095901 | 24 | 213 | 3.2 | 8.0 | 0.00 | 0.00 | 0.00 | 86 | 1010.8 |
| 20260903095401 | 24 | 224 | 3.2 | 8.0 | 0.00 | 0.00 | 0.00 | 86 | 1010.8 |
| 20260903094857 | 24 | 213 | 1.6 | 6.4 | 0.00 | 0.00 | 0.00 | 86 | 1010.8 |
| 20260903094620 | 24 | 222 | 1.6 | 6.4 | 0.00 | 0.00 | 0.00 | 86 | 1010.8 |
| 20260903093851 | 24 | 213 | 3.2 | 6.4 | 0.00 | 0.00 | 0.00 | 86 | 1010.8 |
| 20260903093347 | 24 | 188 | 3.2 | 9.7 | 0.00 | 0.00 | 0.00 | 86 | 1010.8 |
| 20260903092840 | 24 | 225 | 3.2 | 6.4 | 0.00 | 0.00 | 0.00 | 86 | 1010.7 |
| 20260903092330 | 24 | 215 | 1.6 | 6.4 | 0.00 | 0.00 | 0.00 | 86 | 1010.7 |
| 20260903091825 | 24 | 203 | 1.6 | 4.8 | 0.00 | 0.00 | 0.00 | 86 | 1010.7 |
| 20260903091320 | 24 | 231 | 1.6 | 4.8 | 0.00 | 0.00 | 0.00 | 86 | 1010.4 |
| 20260903091032 | 24 | 216 | 1.6 | 4.8 | 0.00 | 0.00 | 0.00 | 86 | 1010.4 |
| 20260903090308 | 24 | 205 | 1.6 | 4.8 | 0.00 | 0.00 | 0.00 | 86 | 1010.4 |
| 20260903085800 | 24 | 197 | 1.6 | 4.8 | 0.00 | 0.00 | 0.00 | 86 | 1010.4 |
| 20260903085255 | 24 | 200 | 1.6 | 4.8 | 0.00 | 0.00 | 0.00 | 86 | 1010.4 |
| 20260903084750 | 25 | 218 | 1.6 | 4.8 | 0.00 | 0.00 | 0.00 | 86 | 1010.4 |
| 20260903084239 | 25 | 196 | 1.6 | 8.0 | 0.00 | 0.00 | 0.00 | 86 | 1010.4 |
| 20260903083738 | 25 | 212 | 1.6 | 8.0 | 0.00 | 0.00 | 0.00 | 86 | 1010.4 |
| 20260903083225 | 25 | 231 | 1.6 | 8.0 | 0.00 | 0.00 | 0.00 | 86 | 1010.4 |
| 20260903082725 | 25 | 220 | 0.0 | 3.2 | 0.00 | 0.00 | 0.00 | 86 | 1010.4 |
| 20260903082220 | 25 | 194 | 0.0 | 3.2 | 0.00 | 0.00 | 0.00 | 86 | 1010.4 |
| 20260903081714 | 25 | 193 | 1.6 | 4.8 | 0.00 | 0.00 | 0.00 | 86 | 1010.4 |
| 20260903081208 | 25 | 239 | 1.6 | 6.4 | 0.00 | 0.00 | 0.00 | 85 | 1010.4 |
| 20260903080653 | 25 | 229 | 1.6 | 6.4 | 0.00 | 0.00 | 0.00 | 86 | 1010.4 |
| 20260903080157 | 25 | 234 | 3.2 | 8.0 | 0.00 | 0.00 | 0.00 | 86 | 1010.4 |
| 20260903075650 | 25 | 216 | 4.8 | 9.7 | 0.00 | 0.00 | 0.00 | 86 | 1010.4 |
| 20260903075401 | 25 | 230 | 4.8 | 11.3 | 0.00 | 0.00 | 0.00 | 86 | 1010.4 |
| 20260903074637 | 25 | 231 | 4.8 | 11.3 | 0.00 | 0.00 | 0.00 | 86 | 1010.4 |
| 20260903074130 | 25 | 217 | 4.8 | 9.7 | 0.00 | 0.00 | 0.00 | 86 | 1010.3 |
| 20260903073625 | 25 | 227 | 4.8 | 9.7 | 0.00 | 0.00 | 0.00 | 86 | 1010.3 |
| 20260903073119 | 25 | 221 | 3.2 | 8.0 | 0.00 | 0.00 | 0.00 | 86 | 1010.3 |
| 20260903072841 | 25 | 227 | 1.6 | 8.0 | 0.00 | 0.00 | 0.00 | 87 | 1010.4 |
| 20260903072108 | 25 | 211 | 0.0 | 3.2 | 0.00 | 0.00 | 0.00 | 87 | 1010.4 |
| 20260903071600 | 25 | 189 | 0.0 | 1.6 | 0.00 | 0.00 | 0.00 | 87 | 1010.4 |
| 20260903071056 | 25 | 214 | 0.0 | 1.6 | 0.00 | 0.00 | 0.00 | 87 | 1010.3 |
| 20260903070541 | 25 | 209 | 0.0 | 1.6 | 0.00 | 0.00 | 0.00 | 87 | 1010.3 |
| 20260903070044 | 25 | 200 | 0.0 | 0.0 | 0.00 | 0.00 | 0.00 | 87 | 1010.3 |
| 20260903065537 | 25 | 199 | 0.0 | 0.0 | 0.00 | 0.00 | 0.00 | 87 | 1010.3 |
| 20260903065032 | 25 | 219 | 0.0 | 0.0 | 0.00 | 0.00 | 0.00 | 87 | 1010.3 |
| 20260903064524 | 25 | 238 | 0.0 | 0.0 | 0.00 | 0.00 | 0.00 | 87 | 1010.3 |
| 20260903064019 | 25 | 228 | 0.0 | 0.0 | 0.00 | 0.00 | 0.00 | 87 | 1010.3 |
| 20260903063513 | 25 | 207 | 0.0 | 0.0 | 0.00 | 0.00 | 0.00 | 87 | 1010.3 |
| 20260903063229 | 25 | 153 | 0.0 | 0.0 | 0.00 | 0.00 | 0.00 | 87 | 1010.3 |
| 20260903062716 | 25 | 236 | 0.0 | 0.0 | 0.00 | 0.00 | 0.00 | 87 | 1010.3 |
| 20260903061942 | 25 | 214 | 0.0 | 0.0 | 0.00 | 0.00 | 0.00 | 87 | 1010.3 |
| 20260903061430 | 25 | 213 | 0.0 | 1.6 | 0.00 | 0.00 | 0.00 | 87 | 1010.5 |
| 20260903060923 | 25 | 212 | 0.0 | 3.2 | 0.00 | 0.00 | 0.00 | 87 | 1010.5 |
| 20260903060423 | 25 | 219 | 1.6 | 3.2 | 0.00 | 0.00 | 0.00 | 87 | 1010.5 |
| 20260903055923 | 25 | 227 | 1.6 | 6.4 | 0.00 | 0.00 | 0.00 | 87 | 1010.4 |
| 20260903055644 | 25 | 227 | 3.2 | 6.4 | 0.00 | 0.00 | 0.00 | 87 | 1010.4 |
| 20260903054926 | 25 | 238 | 3.2 | 8.0 | 0.00 | 0.00 | 0.00 | 87 | 1010.4 |
| 20260903054423 | 25 | 236 | 3.2 | 8.0 | 0.00 | 0.00 | 0.00 | 86 | 1010.4 |
| 20260903053923 | 25 | 238 | 3.2 | 6.4 | 0.00 | 0.00 | 0.00 | 87 | 1010.4 |
| 20260903053421 | 25 | 228 | 3.2 | 6.4 | 0.00 | 0.00 | 0.00 | 86 | 1010.4 |
| 20260903052920 | 25 | 217 | 3.2 | 6.4 | 0.00 | 0.00 | 0.00 | 86 | 1010.3 |
| 20260903052419 | 25 | 225 | 3.2 | 6.4 | 0.00 | 0.00 | 0.00 | 86 | 1010.3 |
| 20260903051913 | 25 | 223 | 3.2 | 6.4 | 0.00 | 0.00 | 0.00 | 86 | 1010.3 |
| 20260903051409 | 25 | 226 | 3.2 | 6.4 | 0.00 | 0.00 | 0.00 | 86 | 1010.2 |
| 20260903050903 | 25 | 226 | 1.6 | 6.4 | 0.00 | 0.00 | 0.00 | 86 | 1010.2 |
| 20260903050352 | 26 | 213 | 1.6 | 4.8 | 0.00 | 0.00 | 0.00 | 86 | 1010.2 |
| 20260903045850 | 26 | 212 | 0.0 | 4.8 | 0.00 | 0.00 | 0.00 | 86 | 1010.2 |
| 20260903045339 | 26 | 217 | 0.0 | 0.0 | 0.00 | 0.00 | 0.00 | 86 | 1010.2 |
| 20260903044825 | 26 | 204 | 1.6 | 4.8 | 0.00 | 0.00 | 0.00 | 86 | 1010.2 |
| 20260903044313 | 26 | 218 | 3.2 | 8.0 | 0.00 | 0.00 | 0.00 | 86 | 1010.2 |
| 20260903043803 | 26 | 199 | 3.2 | 8.0 | 0.00 | 0.00 | 0.00 | 86 | 1010.2 |
| 20260903043251 | 26 | 159 | 1.6 | 4.8 | 0.00 | 0.00 | 0.00 | 85 | 1010.2 |
| 20260903042737 | 26 | 209 | 3.2 | 9.7 | 0.00 | 0.00 | 0.00 | 85 | 1010.2 |
| 20260903042228 | 26 | 218 | 1.6 | 9.7 | 0.00 | 0.00 | 0.00 | 85 | 1010.2 |
| 20260903041720 | 26 | 195 | 1.6 | 6.4 | 0.00 | 0.00 | 0.00 | 85 | 1010.2 |
| 20260903041213 | 26 | 221 | 3.2 | 6.4 | 0.00 | 0.00 | 0.00 | 85 | 1010.2 |
| 20260903040704 | 26 | 223 | 3.2 | 6.4 | 0.00 | 0.00 | 0.00 | 85 | 1010.2 |
| 20260903040201 | 26 | 187 | 3.2 | 8.0 | 0.00 | 0.00 | 0.00 | 85 | 1010.2 |
| 20260903035656 | 26 | 221 | 1.6 | 6.4 | 0.00 | 0.00 | 0.00 | 85 | 1010.2 |
| 20260903035410 | 26 | 173 | 1.6 | 6.4 | 0.00 | 0.00 | 0.00 | 85 | 1010.2 |
| 20260903034643 | 26 | 231 | 1.6 | 6.4 | 0.00 | 0.00 | 0.00 | 85 | 1010.2 |
| 20260903034137 | 26 | 219 | 3.2 | 6.4 | 0.00 | 0.00 | 0.00 | 85 | 1010.1 |
| 20260903033633 | 26 | 222 | 3.2 | 6.4 | 0.00 | 0.00 | 0.00 | 85 | 1010.1 |
| 20260903033122 | 26 | 225 | 3.2 | 6.4 | 0.00 | 0.00 | 0.00 | 85 | 1010.1 |
| 20260903032620 | 26 | 219 | 1.6 | 6.4 | 0.00 | 0.00 | 0.00 | 85 | 1010.2 |
| 20260903032115 | 26 | 198 | 1.6 | 6.4 | 0.00 | 0.00 | 0.00 | 85 | 1010.2 |
| 20260903031609 | 26 | 220 | 3.2 | 8.0 | 0.00 | 0.00 | 0.00 | 85 | 1010.2 |
| 20260903031103 | 27 | 215 | 3.2 | 8.0 | 0.00 | 0.00 | 0.00 | 85 | 1010.1 |
| 20260903030551 | 27 | 217 | 3.2 | 6.4 | 0.00 | 0.00 | 0.00 | 85 | 1010.1 |
| 20260903030049 | 27 | 232 | 3.2 | 6.4 | 0.00 | 0.00 | 0.00 | 84 | 1010.1 |
| 20260903025544 | 27 | 223 | 1.6 | 4.8 | 0.00 | 0.00 | 0.00 | 84 | 1010.2 |
| 20260903025037 | 27 | 218 | 1.6 | 4.8 | 0.00 | 0.00 | 0.00 | 84 | 1010.2 |
| 20260903024531 | 27 | 200 | 3.2 | 6.4 | 0.00 | 0.00 | 0.00 | 84 | 1010.2 |
| 20260903024021 | 27 | 213 | 3.2 | 8.0 | 0.00 | 0.00 | 0.00 | 84 | 1010.2 |
| 20260903023519 | 27 | 218 | 4.8 | 8.0 | 0.00 | 0.00 | 0.00 | 83 | 1010.2 |
| 20260903023014 | 27 | 227 | 3.2 | 8.0 | 0.00 | 0.00 | 0.00 | 83 | 1010.2 |
| 20260903022507 | 27 | 232 | 3.2 | 8.0 | 0.00 | 0.00 | 0.00 | 83 | 1010.0 |
| 20260903022228 | 27 | 192 | 3.2 | 6.4 | 0.00 | 0.00 | 0.00 | 82 | 1010.0 |
| 20260903021455 | 27 | 217 | 3.2 | 4.8 | 0.00 | 0.00 | 0.00 | 82 | 1010.1 |
| 20260903020951 | 27 | 190 | 3.2 | 8.0 | 0.00 | 0.00 | 0.00 | 82 | 1010.1 |
| 20260903020444 | 27 | 207 | 3.2 | 8.0 | 0.00 | 0.00 | 0.00 | 82 | 1010.1 |
| 20260903015938 | 27 | 167 | 3.2 | 6.4 | 0.00 | 0.00 | 0.00 | 82 | 1010.0 |
| 20260903015432 | 28 | 181 | 1.6 | 6.4 | 0.00 | 0.00 | 0.00 | 82 | 1010.0 |
| 20260903014926 | 28 | 233 | 1.6 | 4.8 | 0.00 | 0.00 | 0.00 | 81 | 1010.0 |
| 20260903014419 | 28 | 188 | 1.6 | 6.4 | 0.00 | 0.00 | 0.00 | 81 | 1010.0 |
| 20260903013909 | 28 | 184 | 1.6 | 6.4 | 0.00 | 0.00 | 0.00 | 81 | 1010.0 |
| 20260903013407 | 28 | 194 | 1.6 | 4.8 | 0.00 | 0.00 | 0.00 | 81 | 1010.0 |
| 20260903013128 | 28 | 219 | 1.6 | 4.8 | 0.00 | 0.00 | 0.00 | 81 | 1009.7 |
| 20260903012354 | 28 | 229 | 1.6 | 9.7 | 0.00 | 0.00 | 0.00 | 80 | 1009.7 |
| 20260903011850 | 28 | 229 | 3.2 | 9.7 | 0.00 | 0.00 | 0.00 | 80 | 1009.7 |
| 20260903011342 | 28 | 214 | 3.2 | 8.0 | 0.00 | 0.00 | 0.00 | 79 | 1009.6 |
| 20260903010837 | 28 | 204 | 3.2 | 8.0 | 0.00 | 0.00 | 0.00 | 79 | 1009.6 |
| 20260903010329 | 29 | 211 | 3.2 | 8.0 | 0.00 | 0.00 | 0.00 | 79 | 1009.6 |
| 20260903005822 | 29 | 176 | 3.2 | 9.7 | 0.00 | 0.00 | 0.00 | 79 | 1009.5 |
| 20260903005322 | 29 | 248 | 3.2 | 9.7 | 0.00 | 0.00 | 0.00 | 78 | 1009.5 |
| 20260903004822 | 29 | 232 | 1.6 | 6.4 | 0.00 | 0.00 | 0.00 | 78 | 1009.5 |
| 20260903004322 | 29 | 169 | 1.6 | 6.4 | 0.00 | 0.00 | 0.00 | 78 | 1009.5 |
| 20260903003822 | 30 | 217 | 3.2 | 9.7 | 0.00 | 0.00 | 0.00 | 78 | 1009.5 |
| 20260903003323 | 30 | 239 | 4.8 | 9.7 | 0.00 | 0.00 | 0.00 | 77 | 1009.5 |
| 20260903002825 | 30 | 192 | 3.2 | 9.7 | 0.00 | 0.00 | 0.00 | 77 | 1009.5 |
| 20260903002320 | 30 | 194 | 3.2 | 9.7 | 0.00 | 0.00 | 0.00 | 76 | 1009.5 |
| 20260903001822 | 30 | 189 | 3.2 | 8.0 | 0.00 | 0.00 | 0.00 | 76 | 1009.5 |
| 20260903001317 | 30 | 230 | 3.2 | 8.0 | 0.00 | 0.00 | 0.00 | 76 | 1009.5 |
| 20260903001030 | 30 | 203 | 3.2 | 8.0 | 0.00 | 0.00 | 0.00 | 75 | 1009.5 |
| 20260903000304 | 31 | 184 | 3.2 | 11.3 | 0.00 | 0.00 | 0.00 | 75 | 1009.5 |
| 20260902235758 | 31 | 206 | 3.2 | 11.3 | 0.00 | 0.00 | 0.00 | 75 | 1009.7 |
| 20260902235254 | 31 | 207 | 3.2 | 8.0 | 0.00 | 0.00 | 0.00 | 74 | 1009.7 |
| 20260902235226 | 31 | 208 | 3.2 | 8.0 | 0.00 | 0.00 | 0.00 | 74 | 1009.7 |
| 20260902234457 | 31 | 236 | 4.8 | 12.9 | 0.00 | 0.00 | 0.00 | 74 | 1009.7 |
| 20260902233735 | 31 | 216 | 4.8 | 12.9 | 0.00 | 0.00 | 0.00 | 74 | 1009.7 |
| 20260902233710 | 31 | 227 | 3.2 | 12.9 | 0.00 | 0.00 | 0.00 | 74 | 1009.7 |
| 20260902232722 | 31 | 210 | 4.8 | 9.7 | 0.00 | 0.00 | 0.00 | 74 | 1009.8 |
| 20260902232704 | 32 | 196 | 4.8 | 11.3 | 0.00 | 0.00 | 0.00 | 73 | 1009.8 |
| 20260902231705 | 32 | 218 | 4.8 | 11.3 | 0.00 | 0.00 | 0.00 | 73 | 1009.8 |
| 20260902231206 | 32 | 222 | 4.8 | 12.9 | 0.00 | 0.00 | 0.00 | 72 | 1009.7 |
| 20260902230700 | 32 | 215 | 4.8 | 14.5 | 0.00 | 0.00 | 0.00 | 72 | 1009.7 |
| 20260902230153 | 32 | 215 | 4.8 | 14.5 | 0.00 | 0.00 | 0.00 | 71 | 1009.7 |
| 20260902225644 | 32 | 214 | 6.4 | 14.5 | 0.00 | 0.00 | 0.00 | 71 | 1009.7 |
| 20260902225141 | 32 | 225 | 4.8 | 14.5 | 0.00 | 0.00 | 0.00 | 70 | 1009.7 |
| 20260902224634 | 32 | 148 | 6.4 | 14.5 | 0.00 | 0.00 | 0.00 | 70 | 1009.7 |
| 20260902224347 | 33 | 171 | 6.4 | 11.3 | 0.00 | 0.00 | 0.00 | 69 | 1009.8 |
| 20260902224110 | 33 | 209 | 6.4 | 12.9 | 0.00 | 0.00 | 0.00 | 70 | 1009.8 |
| 20260902223116 | 33 | 132 | 6.4 | 16.1 | 0.00 | 0.00 | 0.00 | 69 | 1009.8 |
| 20260902222610 | 33 | 200 | 6.4 | 16.1 | 0.00 | 0.00 | 0.00 | 68 | 1009.8 |
| 20260902222104 | 33 | 227 | 6.4 | 12.9 | 0.00 | 0.00 | 0.00 | 68 | 1009.8 |
| 20260902221605 | 33 | 232 | 6.4 | 12.9 | 0.00 | 0.00 | 0.00 | 68 | 1009.8 |
| 20260902221324 | 33 | 218 | 4.8 | 14.5 | 0.00 | 0.00 | 0.00 | 67 | 1009.8 |
| 20260902220604 | 33 | 224 | 4.8 | 14.5 | 0.00 | 0.00 | 0.00 | 68 | 1009.8 |
| 20260902220104 | 33 | 204 | 6.4 | 14.5 | 0.00 | 0.00 | 0.00 | 68 | 1009.8 |
| 20260902215604 | 33 | 238 | 6.4 | 17.7 | 0.00 | 0.00 | 0.00 | 66 | 1010.0 |
| 20260902215326 | 33 | 200 | 8.0 | 17.7 | 0.00 | 0.00 | 0.00 | 66 | 1010.0 |
| 20260902215044 | 33 | 233 | 8.0 | 17.7 | 0.00 | 0.00 | 0.00 | 65 | 1010.0 |
| 20260902214104 | 33 | 201 | 6.4 | 17.7 | 0.00 | 0.00 | 0.00 | 64 | 1010.1 |
| 20260902213603 | 33 | 232 | 6.4 | 19.3 | 0.00 | 0.00 | 0.00 | 65 | 1010.1 |
| 20260902213548 | 34 | 146 | 9.7 | 22.5 | 0.00 | 0.00 | 0.00 | 64 | 1010.1 |
| 20260902212603 | 33 | 236 | 11.3 | 22.5 | 0.00 | 0.00 | 0.00 | 63 | 1010.1 |
| 20260902212101 | 34 | 239 | 9.7 | 17.7 | 0.00 | 0.00 | 0.00 | 63 | 1010.1 |
| 20260902211602 | 34 | 221 | 8.0 | 16.1 | 0.00 | 0.00 | 0.00 | 64 | 1010.1 |
| 20260902211102 | 34 | 235 | 8.0 | 16.1 | 0.00 | 0.00 | 0.00 | 63 | 1010.1 |
| 20260902210602 | 33 | 226 | 9.7 | 17.7 | 0.00 | 0.00 | 0.00 | 64 | 1010.1 |
| 20260902210324 | 33 | 244 | 9.7 | 20.9 | 0.00 | 0.00 | 0.00 | 63 | 1010.1 |
| 20260902205558 | 34 | 211 | 8.0 | 20.9 | 0.00 | 0.00 | 0.00 | 63 | 1010.2 |
| 20260902205046 | 34 | 257 | 8.0 | 17.7 | 0.00 | 0.00 | 0.00 | 64 | 1010.2 |
| 20260902204546 | 34 | 197 | 6.4 | 17.7 | 0.00 | 0.00 | 0.00 | 63 | 1010.2 |
| 20260902204046 | 34 | 221 | 6.4 | 17.7 | 0.00 | 0.00 | 0.00 | 62 | 1010.2 |
| 20260902203546 | 34 | 227 | 8.0 | 22.5 | 0.00 | 0.00 | 0.00 | 60 | 1010.2 |
| 20260902203310 | 34 | 202 | 9.7 | 22.5 | 0.00 | 0.00 | 0.00 | 61 | 1010.2 |
| 20260902202545 | 34 | 209 | 8.0 | 22.5 | 0.00 | 0.00 | 0.00 | 62 | 1010.2 |
| 20260902202045 | 34 | 254 | 6.4 | 16.1 | 0.00 | 0.00 | 0.00 | 61 | 1010.2 |
| 20260902201812 | 34 | 157 | 6.4 | 14.5 | 0.00 | 0.00 | 0.00 | 64 | 1010.2 |
| 20260902201351 | 34 | 225 | 8.0 | 16.1 | 0.00 | 0.00 | 0.00 | 64 | 1010.4 |
| 20260902200035 | 34 | 225 | 8.0 | 20.9 | 0.00 | 0.00 | 0.00 | 61 | 1010.4 |
| 20260902195530 | 34 | 246 | 6.4 | 16.1 | 0.00 | 0.00 | 0.00 | 60 | 1010.5 |
| 20260902195023 | 34 | 161 | 6.4 | 17.7 | 0.00 | 0.00 | 0.00 | 63 | 1010.5 |
| 20260902194518 | 33 | 213 | 8.0 | 17.7 | 0.00 | 0.00 | 0.00 | 63 | 1010.5 |
| 20260902194011 | 33 | 218 | 6.4 | 16.1 | 0.00 | 0.00 | 0.00 | 63 | 1010.7 |
| 20260902193506 | 33 | 216 | 6.4 | 16.1 | 0.00 | 0.00 | 0.00 | 65 | 1010.7 |
| 20260902192955 | 34 | 212 | 6.4 | 16.1 | 0.00 | 0.00 | 0.00 | 62 | 1010.7 |
| 20260902192452 | 33 | 210 | 6.4 | 16.1 | 0.00 | 0.00 | 0.00 | 64 | 1010.8 |
| 20260902191946 | 33 | 235 | 8.0 | 16.1 | 0.00 | 0.00 | 0.00 | 62 | 1010.8 |
| 20260902191440 | 33 | 217 | 8.0 | 16.1 | 0.00 | 0.00 | 0.00 | 60 | 1011.0 |
| 20260902190934 | 33 | 273 | 8.0 | 16.1 | 0.00 | 0.00 | 0.00 | 60 | 1011.0 |
| 20260902190423 | 33 | 258 | 8.0 | 17.7 | 0.00 | 0.00 | 0.00 | 60 | 1011.0 |
| 20260902190146 | 33 | 226 | 8.0 | 17.7 | 0.00 | 0.00 | 0.00 | 61 | 1011.0 |
| 20260902185417 | 33 | 236 | 6.4 | 17.7 | 0.00 | 0.00 | 0.00 | 63 | 1011.0 |
| 20260902184909 | 33 | 237 | 4.8 | 12.9 | 0.00 | 0.00 | 0.00 | 64 | 1011.0 |
| 20260902184404 | 33 | 196 | 6.4 | 16.1 | 0.00 | 0.00 | 0.00 | 63 | 1011.1 |
| 20260902183858 | 32 | 199 | 6.4 | 16.1 | 0.00 | 0.00 | 0.00 | 63 | 1011.1 |
| 20260902183352 | 32 | 325 | 8.0 | 16.1 | 0.00 | 0.00 | 0.00 | 65 | 1011.1 |
| 20260902182841 | 32 | 202 | 8.0 | 16.1 | 0.00 | 0.00 | 0.00 | 66 | 1011.2 |
| 20260902182825 | 32 | 225 | 8.0 | 14.5 | 0.00 | 0.00 | 0.00 | 66 | 1011.2 |
| 20260902182057 | 32 | 248 | 6.4 | 16.1 | 0.00 | 0.00 | 0.00 | 66 | 1011.2 |
| 20260902181329 | 32 | 151 | 6.4 | 16.1 | 0.00 | 0.00 | 0.00 | 66 | 1011.2 |
| 20260902180822 | 32 | 197 | 6.4 | 12.9 | 0.00 | 0.00 | 0.00 | 67 | 1011.2 |
| 20260902180311 | 32 | 217 | 8.0 | 14.5 | 0.00 | 0.00 | 0.00 | 67 | 1011.2 |
| 20260902175810 | 32 | 208 | 6.4 | 14.5 | 0.00 | 0.00 | 0.00 | 66 | 1011.3 |
| 20260902175307 | 32 | 200 | 6.4 | 14.5 | 0.00 | 0.00 | 0.00 | 67 | 1011.3 |
| 20260902174757 | 32 | 221 | 6.4 | 14.5 | 0.00 | 0.00 | 0.00 | 66 | 1011.3 |
| 20260902174253 | 32 | 227 | 8.0 | 14.5 | 0.00 | 0.00 | 0.00 | 65 | 1011.4 |
| 20260902173743 | 32 | 229 | 8.0 | 14.5 | 0.00 | 0.00 | 0.00 | 66 | 1011.4 |
| 20260902173241 | 32 | 229 | 6.4 | 14.5 | 0.00 | 0.00 | 0.00 | 66 | 1011.4 |
| 20260902172735 | 32 | 241 | 8.0 | 17.7 | 0.00 | 0.00 | 0.00 | 66 | 1011.4 |
| 20260902172227 | 31 | 229 | 8.0 | 17.7 | 0.00 | 0.00 | 0.00 | 67 | 1011.4 |
| 20260902171726 | 31 | 194 | 6.4 | 14.5 | 0.00 | 0.00 | 0.00 | 66 | 1011.4 |
| 20260902171224 | 31 | 243 | 8.0 | 16.1 | 0.00 | 0.00 | 0.00 | 66 | 1011.7 |
| 20260902171202 | 31 | 250 | 8.0 | 16.1 | 0.00 | 0.00 | 0.00 | 67 | 1011.7 |
| 20260902170442 | 31 | 222 | 6.4 | 16.1 | 0.00 | 0.00 | 0.00 | 67 | 1011.7 |
| 20260902165721 | 31 | 225 | 4.8 | 12.9 | 0.00 | 0.00 | 0.00 | 68 | 1011.8 |
| 20260902165221 | 31 | 230 | 6.4 | 14.5 | 0.00 | 0.00 | 0.00 | 69 | 1011.8 |
| 20260902164722 | 31 | 249 | 6.4 | 14.5 | 0.00 | 0.00 | 0.00 | 69 | 1011.8 |
| 20260902164218 | 31 | 248 | 6.4 | 14.5 | 0.00 | 0.00 | 0.00 | 69 | 1011.9 |
| 20260902163719 | 30 | 248 | 6.4 | 16.1 | 0.00 | 0.00 | 0.00 | 69 | 1011.9 |
| 20260902162719 | 30 | 227 | 6.4 | 16.1 | 0.00 | 0.00 | 0.00 | 70 | 1011.9 |
| 20260902162219 | 30 | 247 | 8.0 | 17.7 | 0.00 | 0.00 | 0.00 | 70 | 1011.9 |
| 20260902161720 | 30 | 242 | 8.0 | 17.7 | 0.00 | 0.00 | 0.00 | 70 | 1011.9 |
| 20260902161214 | 30 | 220 | 8.0 | 22.5 | 0.00 | 0.00 | 0.00 | 71 | 1011.9 |
| 20260902160700 | 30 | 257 | 8.0 | 22.5 | 0.00 | 0.00 | 0.00 | 71 | 1011.9 |
| 20260902160409 | 29 | 329 | 6.4 | 14.5 | 0.00 | 0.00 | 0.00 | 73 | 1011.9 |
| 20260902155638 | 29 | 202 | 6.4 | 16.1 | 0.00 | 0.00 | 0.00 | 72 | 1011.6 |
| 20260902155353 | 29 | 148 | 8.0 | 16.1 | 0.00 | 0.00 | 0.00 | 73 | 1011.6 |
| 20260902154613 | 29 | 236 | 8.0 | 12.9 | 0.00 | 0.00 | 0.00 | 72 | 1011.6 |
| 20260902154544 | 29 | 230 | 8.0 | 16.1 | 0.00 | 0.00 | 0.00 | 73 | 1011.7 |
| 20260902153556 | 28 | 219 | 8.0 | 17.7 | 0.00 | 0.00 | 0.00 | 73 | 1011.7 |
| 20260902153045 | 28 | 235 | 8.0 | 17.7 | 0.00 | 0.00 | 0.00 | 72 | 1011.7 |
| 20260902152801 | 28 | 209 | 8.0 | 16.1 | 0.00 | 0.00 | 0.00 | 75 | 1011.5 |
| 20260902152038 | 28 | 205 | 6.4 | 14.5 | 0.00 | 0.00 | 0.00 | 74 | 1011.5 |